SCP
0 0 0 0 0 0 0 0 0 0 0 0 1 1 1 1 1 1 1 1 1 1 1 1 1 1 1 1 1 1 1 1 1 1 1 1 1 1 1 1 1 1 1 1
0 0 0 0 0 0 0 0 0 0 0 0 1 1 1 1 1 1 2 2 2 2 1 1 1 1 1 1 1 1 1 1 1 1 1 1 1 1 1 1 1 1 1 1
0 0 0 0 0 0 0 0 0 0 0 0 1 1 1 1 1 2 2 2 2 2 2 1 1 1 1 1 1 1 1 1 1 1 1 1 1 1 1 1 1 1 1 1
0 0 0 0 0 0 0 0 0 0 0 0 0 1 1 2 2 2 2 3 3 3 2 2 1 1 1 1 1 1 1 2 2 2 2 2 2 2 1 1 1 1 1 1
0 0 0 0 0 0 0 0 0 0 0 0 0 0 1 2 2 2 2 2 3 3 3 2 1 1 1 1 1 1 2 2 2 3 3 3 3 2 1 1 1 1 1 1
0 0 0 0 0 0 0 0 0 0 0 0 0 0 1 2 2 2 2 2 3 3 3 2 2 1 1 1 2 2 2 2 3 4 4 5 4 2 2 1 1 1 1 1
0 0 0 0 0 0 0 0 0 0 0 0 0 0 1 2 2 2 2 2 2 3 3 3 2 2 2 2 2 3 3 3 3 4 5 5 3 2 2 1 1 1 1 1
0 0 0 0 0 0 0 0 0 0 0 0 0 1 2 2 2 2 2 2 2 3 3 3 3 3 3 3 3 4 4 4 4 5 5 4 3 2 2 1 1 1 1 0
0 0 0 0 0 0 0 0 0 0 0 0 0 1 1 2 2 2 2 3 3 3 3 4 3 3 4 4 5 5 6 6 5 4 4 3 2 2 2 1 1 1 1 1
0 0 0 0 0 0 0 0 0 0 0 0 0 0 1 2 2 2 3 3 3 3 3 4 5 5 6 7 7 7 7 6 6 4 3 2 3 3 2 2 1 1 1 1
0 0 0 0 0 0 0 0 0 0 0 0 0 0 1 1 2 2 3 3 3 3 3 3 4 6 8 9 8 7 6 5 4 3 2 2 2 3 3 2 2 2 1 1
0 0 0 0 0 0 0 0 0 0 0 0 0 0 1 1 2 2 2 2 3 3 3 3 4 5 6 6 6 5 4 3 3 3 2 2 2 3 3 3 2 2 2 1
0 0 0 0 0 0 0 0 0 0 0 0 0 0 1 1 1 1 1 2 3 3 3 4 5 5 5 4 4 3 3 2 2 2 2 2 2 2 3 3 3 2 2 2
0 0 0 0 0 0 0 0 0 0 0 0 0 0 1 1 1 1 1 2 3 3 4 5 6 7 6 4 3 2 2 2 2 2 2 2 2 2 3 4 3 3 2 2
0 0 0 0 0 0 0 0 1 1 1 0 0 1 1 2 2 2 2 2 3 3 4 5 7 7 6 4 3 2 2 2 2 2 2 2 2 3 3 3 3 3 2 2
0 0 0 0 0 0 0 0 1 1 1 1 1 1 2 3 3 2 2 2 3 4 5 6 7 6 5 4 3 3 3 3 2 2 2 2 3 4 4 3 3 3 3 3
0 0 0 0 0 0 0 0 1 1 1 1 1 1 2 2 2 2 2 3 3 4 6 7 7 6 4 3 3 4 4 4 3 2 2 3 3 4 4 3 3 3 3 3
0 0 0 0 0 0 0 0 1 1 1 1 1 1 1 1 1 1 2 2 3 4 6 7 7 6 4 4 4 5 5 4 3 3 3 3 3 4 4 4 4 4 4 4
0 0 0 0 0 0 0 0 1 1 1 1 1 1 1 1 1 1 1 2 3 4 7 9 9 7 6 5 5 6 5 4 3 3 3 3 4 4 4 4 4 5 5 5
0 0 0 0 0 0 0 1 1 1 1 1 2 1 1 1 1 1 2 2 2 4 7 10 11 9 7 7 7 7 5 4 3 3 3 3 4 3 4 4 5 5 5 5
0 1 1 1 0 0 1 1 1 1 1 2 2 2 2 2 2 2 2 3 3 4 7 11 12 10 8 7 7 7 6 4 3 3 3 4 4 4 4 5 5 5 5 5
1 1 1 1 1 1 1 2 2 2 2 2 3 3 3 2 2 2 3 4 5 6 8 11 12 9 7 6 5 6 6 5 4 3 3 4 5 5 7 8 8 7 6 6
1 1 1 1 1 1 1 1 1 2 3 3 3 3 3 3 3 3 4 5 6 7 8 11 10 7 6 6 5 6 6 5 4 4 4 4 6 7 8 9 9 8 8 8
1 1 1 1 1 1 1 1 1 1 2 3 3 3 3 4 4 4 4 4 5 6 7 8 7 6 5 6 6 6 6 5 4 4 3 4 5 6 6 8 7 6 7 7
1 2 2 1 1 1 0 0 1 1 2 3 3 2 2 3 3 4 3 3 4 5 5 5 5 5 4 5 6 6 7 7 6 5 4 3 3 4 4 5 5 4 4 5
1 2 2 2 1 1 1 0 1 1 3 3 3 3 2 2 2 3 3 3 4 5 5 4 4 4 4 4 5 6 7 8 9 7 4 3 2 3 3 4 4 3 3 3
Wind_Speed
8 9 8 5 5 6 6 5 4 1 1 5 5 5 7 10 12 12 12 12 13 12 12 11 11 10 10 10 10 9 8 8 6 5 4 4 3 3 2 2 2 1 1 1
10 11 7 5 6 7 7 7 5 2 2 4 4 5 6 9 11 12 12 13 13 13 13 12 12 11 11 10 10 9 9 8 7 5 3 3 2 2 2 1 2 1 1 1
14 6 6 8 8 9 8 7 5 4 2 5 5 7 7 9 10 10 11 12 13 14 14 14 13 13 12 11 11 9 9 9 8 7 5 4 3 3 3 3 2 1 1 1
12 8 8 10 9 9 8 4 6 6 8 5 6 6 6 8 9 11 12 13 13 14 14 14 14 14 13 12 11 11 10 9 8 8 6 6 4 4 3 2 2 2 2 2
10 9 10 11 9 9 6 4 6 8 8 8 7 8 4 7 9 9 10 11 11 12 14 14 14 13 12 12 11 11 11 10 9 8 7 6 5 4 3 3 3 3 3 2
10 7 9 9 7 7 6 7 8 9 9 10 6 9 6 5 6 7 8 9 9 11 12 12 12 12 11 12 11 11 11 10 9 9 8 7 6 5 4 4 3 4 3 2
14 12 9 8 9 10 11 10 7 8 8 7 4 8 5 0 2 3 5 6 8 10 11 12 13 13 12 12 12 11 12 10 10 10 8 8 7 6 6 5 4 4 3 2
14 13 12 10 11 9 11 12 9 8 7 5 6 7 2 1 1 2 4 6 7 9 10 11 12 12 12 12 13 12 12 11 10 9 8 7 7 6 4 4 3 3 2 2
10 10 8 8 8 10 11 11 9 10 10 9 6 5 4 4 3 3 4 6 7 7 7 9 11 12 12 12 12 12 12 11 11 10 9 8 7 6 4 4 5 3 3 2
9 8 8 8 9 8 10 9 9 10 9 10 8 8 4 5 4 4 4 5 6 7 7 8 8 10 10 11 11 11 11 11 10 10 9 7 7 6 5 5 4 4 4 3
11 11 9 10 12 12 11 11 11 10 10 10 9 5 2 2 3 4 4 5 5 5 6 6 7 8 9 10 11 11 10 10 9 9 9 8 7 7 7 6 5 5 4 4
9 10 10 10 7 7 11 12 13 11 10 10 11 4 4 1 2 3 3 4 5 5 5 6 7 8 8 9 10 10 10 10 9 9 8 8 7 7 7 6 6 5 5 5
5 9 11 11 11 9 11 12 13 13 11 11 12 5 5 3 2 2 3 4 5 5 5 6 7 7 7 7 8 9 9 9 9 9 8 8 7 7 7 6 6 5 5 4
6 10 11 11 5 7 11 12 13 14 12 12 12 9 4 4 3 3 3 4 5 6 6 6 7 7 6 6 7 7 7 8 8 8 8 8 7 7 6 6 6 6 6 5
7 9 9 9 8 8 10 11 12 15 15 14 11 11 7 5 4 4 5 6 6 7 7 6 6 6 6 6 7 7 6 7 7 7 7 7 6 6 6 5 5 5 6 6
6 8 9 11 11 11 13 13 14 14 14 15 14 10 4 3 3 5 6 7 7 7 6 6 6 6 6 6 6 7 7 6 6 7 6 6 6 6 5 5 5 5 5 5
6 8 10 11 10 12 16 14 14 13 12 13 13 8 4 4 4 5 6 7 7 7 7 7 6 5 6 6 7 7 7 6 6 6 6 6 6 5 5 5 5 5 6 6
8 9 8 10 10 16 9 6 10 12 11 11 9 6 5 5 4 4 4 5 6 6 6 6 5 5 5 6 7 7 7 7 6 6 5 5 5 5 5 5 5 5 5 5
10 9 9 11 14 14 9 6 8 11 11 8 8 7 5 4 4 5 4 4 5 5 5 5 5 5 4 5 7 7 7 6 6 6 5 5 5 5 4 4 4 4 4 4
9 10 11 12 14 14 6 3 4 8 11 5 6 6 6 6 8 5 6 6 5 5 4 4 4 5 5 5 6 7 7 6 6 5 5 5 5 5 5 4 4 3 3 3
11 11 13 14 14 10 3 1 5 10 3 1 3 4 5 7 4 0 3 4 5 5 5 5 5 4 5 5 6 6 6 6 5 4 4 5 5 5 5 4 3 3 3 3
10 11 12 12 14 9 1 3 5 3 4 2 3 2 4 3 1 2 3 4 5 5 5 5 5 4 4 5 6 5 4 4 4 4 4 5 5 4 4 4 3 3 3 4
9 7 6 8 5 2 1 3 3 4 4 4 3 2 3 3 2 3 3 3 4 5 5 5 5 4 4 4 4 5 4 4 4 4 4 4 4 4 3 4 4 4 4 4
6 5 8 8 6 4 4 4 5 5 6 5 4 4 4 4 3 3 3 3 4 5 5 5 5 5 4 4 4 4 4 4 4 4 4 4 4 4 3 3 3 3 3 3
6 6 8 10 7 6 6 6 6 6 6 5 4 4 4 4 4 3 4 4 3 4 4 5 5 5 5 4 4 4 4 4 4 4 3 4 4 4 4 3 1 2 2 1
8 8 9 8 6 7 6 5 6 6 6 5 5 4 4 4 4 4 4 4 4 4 5 5 5 5 5 5 4 4 5 4 4 4 4 4 3 4 4 4 3 2 1 2
Wind_Direction
204 226 226 227 245 276 282 276 279 304 153 234 233 225 194 187 199 200 197 195 196 198 189 185 188 186 184 182 183 184 186 175 184 184 189 185 182 184 180 160 136 165 174 149
214 225 232 240 236 243 252 260 256 213 159 254 252 243 214 202 206 207 204 200 200 196 189 188 189 189 188 182 182 182 183 180 189 180 187 187 178 185 170 159 154 185 172 224
230 223 210 226 226 234 242 257 272 265 211 217 246 231 207 202 208 211 212 209 205 201 194 188 193 193 188 185 185 185 184 182 187 181 185 175 176 194 183 186 178 179 204 217
233 225 221 228 229 241 242 251 264 253 248 234 243 263 205 199 201 208 209 208 208 201 196 193 192 194 192 188 184 183 182 184 184 188 193 194 199 199 187 196 172 191 200 207
218 217 224 230 232 243 260 261 252 252 257 258 233 260 216 196 211 211 207 208 207 200 196 196 195 192 192 186 183 180 180 182 184 192 192 203 206 200 182 187 179 212 195 205
235 226 239 239 232 234 227 228 227 236 247 249 243 260 246 207 222 212 203 204 204 198 195 194 192 188 190 184 182 178 177 183 185 192 193 200 202 204 197 199 190 209 195 196
220 218 217 224 224 206 220 235 235 231 231 242 221 253 261 237 242 233 216 202 201 196 194 191 190 187 188 185 182 178 176 181 187 191 193 196 200 204 204 209 200 223 208 194
216 214 204 212 229 225 222 243 253 263 266 255 209 247 249 111 199 224 214 195 189 194 194 191 189 187 185 183 183 179 178 181 185 188 192 196 201 209 204 206 212 213 224 204
226 218 190 208 224 237 225 236 258 268 270 269 245 240 208 174 186 189 189 183 182 184 187 189 185 184 184 183 182 182 181 184 186 187 190 194 202 212 208 202 212 207 205 197
243 235 199 189 206 221 249 242 238 250 260 263 253 242 236 189 199 191 185 179 179 178 181 187 183 183 182 183 178 180 183 185 185 186 193 191 195 201 208 214 211 213 209 206
245 239 217 202 219 219 209 224 236 249 257 266 266 255 89 197 202 204 188 178 178 180 179 178 174 175 176 175 173 177 180 182 185 189 192 195 194 198 204 207 208 210 210 202
228 245 237 220 214 249 235 235 233 239 242 253 270 267 104 158 197 204 194 174 172 178 174 168 163 163 167 168 171 173 178 181 184 186 188 194 196 198 204 205 203 203 207 209
211 235 231 217 200 204 226 230 237 246 248 249 256 246 131 147 173 185 190 170 161 167 165 162 158 161 165 166 169 171 178 181 182 181 187 191 196 195 201 205 203 202 205 210
253 243 246 248 243 215 217 225 232 240 244 245 250 261 217 200 197 188 181 170 162 164 167 166 162 162 163 166 168 175 180 179 179 181 188 190 194 195 198 201 205 204 206 211
249 243 245 260 264 255 242 234 231 238 251 260 261 260 255 231 207 191 181 174 172 172 171 168 169 163 166 167 170 175 180 179 178 182 190 191 192 194 199 200 208 205 209 212
250 257 250 246 245 250 250 243 238 239 246 254 261 264 266 234 202 190 189 184 182 182 180 173 170 168 171 171 173 173 176 177 179 186 193 190 193 196 199 203 206 205 207 210
241 242 248 249 242 249 242 237 239 240 242 251 254 258 233 223 208 203 199 194 192 188 183 177 176 175 173 174 173 173 171 171 176 184 192 192 195 199 203 208 204 206 208 207
246 244 244 250 244 246 249 242 244 247 245 246 257 258 239 237 221 209 202 201 198 192 187 181 178 177 175 172 170 169 166 170 174 181 190 191 196 199 200 203 206 209 211 208
236 238 244 246 241 243 237 232 240 244 246 248 249 243 230 213 207 199 198 202 200 194 186 182 184 175 166 166 164 166 169 172 179 183 192 193 194 195 196 197 199 204 208 206
215 223 241 239 247 247 236 207 244 251 240 235 245 235 217 201 226 196 185 200 196 188 180 175 175 168 159 158 163 171 173 177 185 189 195 195 195 198 201 195 197 199 204 206
205 213 230 240 244 246 272 215 213 234 250 281 249 240 223 217 256 112 171 185 180 175 169 165 166 164 155 159 165 178 181 184 183 186 190 189 188 194 191 188 193 194 202 204
229 226 225 236 243 239 109 209 240 315 355 333 292 264 240 233 218 165 167 169 168 168 165 164 159 149 147 161 170 180 184 175 172 180 184 181 182 193 177 180 187 193 201 202
242 260 257 248 258 352 261 258 302 311 307 304 296 286 248 227 214 190 182 176 171 170 162 163 158 150 150 163 175 181 172 169 175 183 186 181 181 184 182 184 187 195 204 217
226 259 261 255 244 255 264 279 286 295 291 292 289 275 250 243 233 209 190 184 180 172 168 167 165 163 159 166 177 175 161 168 176 186 184 176 178 181 177 191 195 201 206 218
267 248 245 248 256 262 253 274 288 293 290 287 279 259 244 239 230 208 192 188 188 183 180 180 177 172 168 170 174 171 160 166 174 182 186 192 190 182 182 187 195 214 195 239
244 248 250 258 258 262 270 280 280 275 276 274 266 252 243 235 223 207 196 191 194 193 187 188 185 179 172 173 175 174 167 171 179 185 192 200 195 182 186 179 168 88 115 124